This demonstration page uses our WeatherBlox Daily Observations layout. Learn more.

39.08367, -84.50855

Hourly Observations for July 3, 2019

Temp ( °F °C ) Dew Point ( °F °C ) Humidity (%) Winds ( mph kmh ) Pressure ( in mb ) Visibility ( mi km ) Precip ( " mm )
12:53 am 00:53 Clear 73 22.8 70 21.1 90 90 S 5 7 29.91 1013 10 16.09344 0 0
1:53 am 01:53 Clear 73 22.8 70 21.1 90 90 SSW 3 6 29.91 1013 10 16.09344 0 0
2:53 am 02:53 Clear 73 22.8 70 21.1 90 90 Calm 29.91 1013 10 16.09344 0 0
3:53 am 03:53 Clear with Light Rain 72 22.2 69 20.6 91 91 Calm 29.91 1013 10 16.09344 0.001 0.001
4:53 am 04:53 Clear 70 21.1 68 20 93 93 Calm 29.91 1013 10 16.09344 0.001 0.001
5:53 am 05:53 Mostly Cloudy 69 20.6 69 20.6 100 100 SSW 5 7 29.91 1013 7 11.265408 0 0
6:53 am 06:53 Mostly Cloudy 71 21.7 68 20 90 90 ENE 5 7 29.94 1014 10 16.09344 0 0
7:53 am 07:53 Cloudy with Light Rain 70 21.1 69 20.6 97 97 NNW 5 7 29.94 1014 4 6.437376 0.39 9.906
8:53 am 08:53 Mostly Sunny 72 22.2 70 21.1 94 94 SW 6 9 29.94 1014 9 14.484096 0.05 1.27
9:53 am 09:53 Sunny 76 24.4 70 21.1 82 82 S 7 11 29.94 1014 10 16.09344 0 0
10:53 am 10:53 Sunny 80 26.7 72 22.2 76 76 VRB 5 7 29.94 1014 10 16.09344 0 0
11:53 am 11:53 Sunny 82 27.8 73 22.8 74 74 S 7 11 29.94 1014 10 16.09344 0 0
12:53 pm 12:53 Partly Cloudy 85 29.4 73 22.8 68 68 SW 6 9 29.94 1014 10 16.09344 0 0
1:53 pm 13:53 Partly Cloudy 86 30 73 22.8 65 65 S 3 6 29.91 1013 10 16.09344 0 0
2:53 pm 14:53 Partly Cloudy 85 29.4 72 22.2 65 65 SW 8 13 29.88 1012 10 16.09344 0 0
3:53 pm 15:53 Partly Cloudy 80 26.7 71 21.7 74 74 SSW 8 13 29.88 1012 10 16.09344 0 0
4:53 pm 16:53 Mostly Sunny 82 27.8 70 21.1 67 67 SW 6 9 29.88 1012 10 16.09344 0 0
5:53 pm 17:53 Mostly Sunny 83 28.3 70 21.1 65 65 NE 5 7 29.88 1012 10 16.09344 0 0
6:53 pm 18:53 Sunny 81 27.2 70 21.1 69 69 ENE 5 7 29.88 1012 10 16.09344 0 0
7:53 pm 19:53 Sunny 78 25.6 71 21.7 79 79 SSW 8 13 29.91 1013 10 16.09344 0 0
8:53 pm 20:53 Sunny 76 24.4 70 21.1 82 82 S 7 11 29.91 1013 10 16.09344 0 0
9:53 pm 21:53 Clear 74 23.3 70 21.1 88 88 SE 3 6 29.94 1014 10 16.09344 0.001 0.001
10:53 pm 22:53 Clear 73 22.8 70 21.1 90 90 S 3 6 29.94 1014 10 16.09344 0 0
11:53 pm 23:53 Clear 72 22.2 70 21.1 94 94 SSW 3 6 29.94 1014 10 16.09344 0 0

Powered by AerisWeather